{"data":{"norad_id":67888,"epoch":"2026-09-19T01:36:25.104672Z","epoch_age_seconds":187070,"freshness":"STALE","line1":"1 67888U 26035K   26262.06695723  .00015833  00000+0  49150-3 0  9990","line2":"2 67888  97.2826 193.9408 0002152  97.6887 262.4600 15.33458251 33623","mean_motion":15.33458251,"eccentricity":0.0002152,"inclination_deg":97.2826,"raan_deg":193.9408,"arg_perigee_deg":97.6887,"mean_anomaly_deg":262.46,"bstar":0.0004915,"rev_number":3362,"period_min":93.905393189606,"perigee_km":464.0309976197,"apogee_km":466.97650059812,"semimajor_km":6843.6407491089,"source":"CELESTRAK","updated_at":"2026-09-20T09:00:43.697228Z"}}